Total_Precipitation_Accumulation
1.14 1.17 1.18 1.19 1.19 1.17 1.13 1.05 1.08 1.11 1.12 1.06 1.08 1.13 1.16 1.20 1.25 1.29 1.27 1.37 1.40 1.42 1.44 1.55 1.65 1.79 1.81 1.71 1.75 1.84 1.95 2.05 1.82 1.75 1.72 1.52 1.42 1.28 1.20 1.14 1.00 0.95 0.82
1.05 1.14 1.29 1.26 1.21 1.11 1.01 0.96 0.99 1.03 1.04 1.02 1.05 1.08 1.07 1.12 1.23 1.31 1.32 1.36 1.39 1.36 1.39 1.51 1.57 1.64 1.74 1.67 1.61 1.61 1.77 1.94 1.91 1.86 1.96 1.89 1.69 1.53 1.45 1.35 1.08 0.93 0.90
1.04 1.14 1.25 1.19 1.13 1.01 0.90 0.92 0.93 0.93 0.98 0.96 0.91 0.91 0.94 1.01 1.14 1.21 1.27 1.30 1.35 1.40 1.38 1.39 1.37 1.46 1.62 1.74 1.73 1.70 1.75 1.88 2.02 2.00 2.07 2.12 1.89 1.67 1.69 1.52 1.33 1.32 1.01
0.93 0.98 1.02 0.96 0.92 0.93 0.92 0.89 0.86 0.89 0.93 0.95 0.92 0.95 0.97 0.99 1.04 1.08 1.11 1.11 1.11 1.16 1.19 1.19 1.17 1.21 1.37 1.69 1.78 1.88 1.92 1.94 2.07 2.10 2.14 2.19 2.19 1.97 1.90 1.74 1.60 1.51 1.31
0.87 0.88 0.90 0.92 0.91 0.89 0.86 0.81 0.80 0.81 0.76 0.87 0.93 0.92 0.93 0.92 0.85 0.89 0.94 0.88 0.89 0.86 0.87 0.90 0.91 0.98 1.01 1.17 1.33 1.58 1.78 1.86 1.91 2.03 2.09 2.16 2.18 2.25 2.01 1.86 1.77 1.73 1.62
0.69 0.70 0.83 0.93 0.90 0.87 0.80 0.75 0.74 0.75 0.80 0.88 0.92 0.87 0.82 0.71 0.76 0.81 0.82 0.81 0.79 0.78 0.76 0.77 0.78 0.82 0.83 0.88 0.92 1.10 1.36 1.60 1.83 2.03 2.09 2.14 2.17 2.24 2.20 2.05 1.94 1.80 1.75
0.64 0.66 0.67 0.78 0.84 0.81 0.73 0.70 0.71 0.75 0.82 0.87 0.91 0.95 0.90 0.88 0.84 0.83 0.87 0.83 0.81 0.79 0.78 0.79 0.67 0.62 0.68 0.71 0.78 0.83 0.96 1.11 1.25 1.61 1.86 1.90 1.98 2.09 2.27 2.21 2.14 2.08 1.98
0.69 0.73 0.69 0.69 0.77 0.80 0.76 0.72 0.76 0.80 0.82 0.87 0.90 0.94 0.98 0.92 0.89 0.87 0.87 0.80 0.81 0.85 0.82 0.82 0.78 0.73 0.73 0.80 0.87 0.84 0.80 0.84 0.93 1.03 1.15 1.33 1.55 1.87 2.12 2.24 2.33 2.35 2.34
0.72 0.75 0.72 0.70 0.75 0.79 0.79 0.82 0.88 0.93 0.86 0.85 0.92 1.02 1.08 1.07 0.99 0.90 0.86 0.79 0.83 0.86 0.82 0.81 0.82 0.75 0.73 0.69 0.77 0.84 0.83 0.82 0.84 0.92 0.94 1.09 1.23 1.43 1.68 1.86 1.99 2.15 2.39
0.80 0.76 0.74 0.78 0.82 0.85 0.93 1.06 1.12 1.14 1.07 1.03 1.01 1.07 1.12 1.17 1.07 0.92 0.86 0.83 0.90 0.97 1.02 0.99 0.93 0.86 0.78 0.73 0.73 0.82 0.86 0.85 0.89 0.92 0.92 0.91 0.94 1.03 1.21 1.37 1.50 1.72 1.96
0.98 0.96 0.92 0.95 1.03 1.10 1.25 1.35 1.41 1.37 1.41 1.39 1.31 1.28 1.31 1.26 1.20 1.01 0.96 0.95 1.06 1.21 1.21 1.13 1.04 0.95 0.81 0.77 0.76 0.79 0.82 0.88 0.99 1.06 1.06 1.01 0.96 0.92 0.97 1.09 1.28 1.37 1.47
1.15 1.16 1.18 1.24 1.14 1.15 1.37 1.46 1.57 1.66 1.64 1.56 1.55 1.48 1.44 1.40 1.22 1.07 1.00 1.03 1.09 1.22 1.28 1.20 1.12 1.00 0.83 0.74 0.70 0.67 0.69 0.70 0.76 0.87 0.93 0.95 0.95 0.88 0.89 1.01 1.23 1.39 1.38
1.35 1.35 1.39 1.43 1.47 1.49 1.61 1.67 1.71 1.73 1.70 1.64 1.64 1.63 1.58 1.53 1.40 1.14 1.05 1.04 1.03 1.07 1.14 1.14 1.08 0.96 0.85 0.74 0.72 0.67 0.62 0.63 0.72 0.78 0.82 0.89 0.92 0.90 0.92 1.04 1.20 1.39 1.40
1.48 1.48 1.58 1.71 1.75 1.77 1.86 1.86 1.86 1.85 1.80 1.79 1.79 1.75 1.70 1.69 1.62 1.44 1.24 1.13 1.07 1.01 1.02 1.08 1.05 0.95 0.84 0.81 0.80 0.72 0.65 0.71 0.79 0.79 0.82 0.90 0.98 1.02 1.03 1.03 1.14 1.24 1.32
1.60 1.64 1.75 1.89 1.97 2.02 1.91 1.90 1.92 1.97 1.91 1.85 1.84 1.81 1.84 1.79 1.69 1.54 1.44 1.37 1.30 1.24 1.19 1.20 1.21 1.11 1.02 0.98 1.01 0.99 0.97 0.92 0.86 0.86 0.91 0.97 1.04 1.08 1.07 1.10 1.14 1.18 1.16
1.67 1.72 1.81 1.89 1.99 2.01 1.98 1.88 1.77 1.69 1.65 1.55 1.56 1.59 1.59 1.60 1.53 1.36 1.27 1.24 1.26 1.33 1.28 1.28 1.36 1.37 1.31 1.24 1.20 1.18 1.16 1.09 1.05 1.05 1.08 1.07 1.06 1.07 1.06 1.14 1.22 1.23 1.20
1.73 1.78 1.80 1.80 1.87 1.95 1.97 1.92 1.83 1.73 1.62 1.49 1.42 1.37 1.32 1.31 1.30 1.28 1.28 1.28 1.26 1.25 1.23 1.31 1.43 1.49 1.51 1.48 1.39 1.29 1.24 1.17 1.12 1.12 1.12 1.13 1.12 1.17 1.21 1.24 1.29 1.33 1.30
1.71 1.75 1.70 1.68 1.74 1.86 1.91 1.95 1.97 1.89 1.82 1.70 1.58 1.48 1.33 1.21 1.20 1.24 1.29 1.29 1.27 1.22 1.25 1.39 1.50 1.55 1.62 1.62 1.51 1.44 1.36 1.28 1.22 1.23 1.26 1.29 1.27 1.28 1.29 1.26 1.27 1.29 1.31
1.63 1.68 1.72 1.78 1.82 1.87 1.93 2.01 2.03 1.95 1.91 1.79 1.59 1.43 1.32 1.20 1.16 1.20 1.18 1.15 1.22 1.30 1.35 1.49 1.57 1.58 1.52 1.47 1.43 1.41 1.34 1.30 1.26 1.25 1.25 1.23 1.22 1.24 1.27 1.30 1.31 1.35 1.31
1.54 1.64 1.74 1.72 1.73 1.78 1.89 1.99 2.02 2.01 1.99 1.94 1.81 1.54 1.33 1.20 1.15 1.19 1.14 1.14 1.19 1.22 1.25 1.34 1.44 1.50 1.48 1.44 1.40 1.33 1.28 1.26 1.22 1.21 1.21 1.20 1.23 1.24 1.20 1.24 1.28 1.25 1.23
1.53 1.52 1.59 1.59 1.60 1.64 1.71 1.78 1.85 1.84 1.77 1.74 1.70 1.55 1.40 1.25 1.24 1.20 1.17 1.17 1.15 1.13 1.19 1.30 1.37 1.37 1.32 1.29 1.30 1.25 1.23 1.23 1.21 1.19 1.23 1.25 1.26 1.24 1.17 1.14 1.13 1.12 1.10
1.59 1.54 1.43 1.43 1.44 1.51 1.56 1.58 1.61 1.58 1.54 1.52 1.49 1.40 1.36 1.27 1.28 1.25 1.18 1.13 1.08 1.02 1.03 1.10 1.18 1.22 1.19 1.15 1.17 1.20 1.19 1.16 1.18 1.16 1.15 1.16 1.17 1.14 1.09 1.08 1.09 1.11 1.14
1.51 1.47 1.36 1.28 1.23 1.31 1.34 1.37 1.39 1.38 1.38 1.38 1.35 1.25 1.19 1.20 1.17 1.10 1.04 0.98 0.95 0.95 0.97 1.02 1.06 1.07 1.04 1.02 1.04 1.08 1.09 1.06 1.06 1.09 1.11 1.11 1.10 1.04 1.02 1.04 1.02 1.06 1.09
1.40 1.38 1.33 1.22 1.11 1.10 1.19 1.30 1.32 1.30 1.30 1.22 1.11 1.03 1.01 1.02 0.97 0.87 0.83 0.83 0.83 0.81 0.81 0.86 0.84 0.80 0.82 0.85 0.88 0.89 0.89 0.86 0.85 0.89 0.90 0.94 0.97 0.92 0.92 0.93 0.90 0.94 1.06
1.17 1.19 1.21 1.16 1.04 0.99 1.08 1.18 1.17 1.10 1.06 0.99 0.89 0.86 0.83 0.81 0.80 0.78 0.75 0.74 0.72 0.72 0.65 0.65 0.67 0.66 0.67 0.67 0.66 0.66 0.63 0.60 0.59 0.62 0.66 0.73 0.81 0.86 0.87 0.88 0.92 1.01 1.10
0.98 0.98 0.99 0.97 0.92 0.87 0.92 1.01 1.02 0.96 0.93 0.84 0.74 0.72 0.74 0.75 0.77 0.77 0.74 0.69 0.66 0.63 0.58 0.59 0.62 0.61 0.58 0.57 0.54 0.49 0.46 0.43 0.45 0.49 0.51 0.58 0.70 0.80 0.82 0.87 0.88 0.93 0.99